This is the latest recevied weather packets stored in our database for station/object SV2RCS-13. If no packets are shown the sender has not sent any weather packets the latest 10 day(s).
| Time | Temp. | Humidity | Pressure | Rain* | Wind** | Luminosity | Snow |
|---|---|---|---|---|---|---|---|
| 1777554418 | 18.33° C | 50% | 1012.1 hPa | - | - | - | - |
| 1777553818 | 18.33° C | 49% | 1011.7 hPa | - | - | - | - |
| 1777553218 | 18.89° C | 50% | 1011.2 hPa | - | - | - | - |
| 1777552617 | 19.44° C | 50% | 1011 hPa | - | - | - | - |
| 1777552017 | 19.44° C | 48% | 1010.9 hPa | - | - | - | - |
| 1777551417 | 20° C | 40% | 1010.7 hPa | - | - | - | - |
| 1777550818 | 20° C | 39% | 1010.9 hPa | - | - | - | - |
| 1777550217 | 20° C | 37% | 1010.9 hPa | - | - | - | - |
| 1777549618 | 20° C | 33% | 1011.1 hPa | - | - | - | - |
| 1777549017 | 20.56° C | 30% | 1011 hPa | - | - | - | - |
| 1777548417 | 20.56° C | 34% | 1011 hPa | - | - | - | - |
| 1777547818 | 20° C | 34% | 1011.1 hPa | - | - | - | - |
| 1777547218 | 20° C | 37% | 1011.6 hPa | - | - | - | - |
| 1777546617 | 20° C | 35% | 1011.3 hPa | - | - | - | - |
| 1777546017 | 20° C | 37% | 1011.5 hPa | - | - | - | - |
| 1777545417 | 20° C | 36% | 1011.7 hPa | - | - | - | - |
| 1777544818 | 20° C | 37% | 1011.9 hPa | - | - | - | - |
| 1777544217 | 20° C | 37% | 1011.9 hPa | - | - | - | - |
| 1777543617 | 20° C | 39% | 1012 hPa | - | - | - | - |
| 1777543018 | 20° C | 39% | 1012.2 hPa | - | - | - | - |
| 1777542418 | 20° C | 40% | 1012.4 hPa | - | - | - | - |
| 1777541818 | 20° C | 40% | 1012.8 hPa | - | - | - | - |
| 1777541217 | 19.44° C | 42% | 1012.8 hPa | - | - | - | - |
| 1777540618 | 20° C | 42% | 1012.8 hPa | - | - | - | - |
| 1777540017 | 20° C | 40% | 1013 hPa | - | - | - | - |
* Rain since midnight (hover to see other rain measurements)
** Current wind speed in m/s (hover to see current wind gust speed)